• Em Portugal
  • Lista de países
  • Para 7 dias
  • Temperatura da água
  • Mapas de satélite
  • Mapa do tempo
  • Widgets de tempo
  • user-avatar
    Iniciar Sessão

    Previsão horária em Rauson

    Hoje, 22 Abril, Domingo

    Tempo Temperatura Precipitação Vento Pressão Humidade
    00:00 +22°C° 0 mm 8 m/s 751 mmHg 35%
    01:00 +22°C° 0 mm 8 m/s 751 mmHg 34%
    02:00 +21°C° 0 mm 8 m/s 751 mmHg 31%
    03:00 +21°C° 0 mm 8 m/s 751 mmHg 35%
    04:00 +20°C° 0 mm 7 m/s 752 mmHg 38%
    05:00 +20°C° 0 mm 7 m/s 753 mmHg 41%
    06:00 +18°C° 0 mm 8 m/s 754 mmHg 39%
    07:00 +16°C° 0 mm 8 m/s 755 mmHg 37%
    08:00 +15°C° 0 mm 8 m/s 757 mmHg 34%
    09:00 +16°C° 0 mm 8 m/s 757 mmHg 30%
    10:00 +16°C° 0 mm 8 m/s 758 mmHg 25%
    11:00 +17°C° 0 mm 9 m/s 759 mmHg 21%
    12:00 +17°C° 0 mm 8 m/s 760 mmHg 20%
    13:00 +17°C° 0 mm 8 m/s 760 mmHg 19%
    14:00 +18°C° 0 mm 7 m/s 760 mmHg 18%
    15:00 +17°C° 0 mm 7 m/s 761 mmHg 18%
    16:00 +17°C° 0 mm 6 m/s 761 mmHg 19%
    17:00 +16°C° 0 mm 5 m/s 762 mmHg 20%
    18:00 +17°C° 0 mm 4 m/s 762 mmHg 23%
    19:00 +16°C° 0 mm 3 m/s 763 mmHg 25%
    20:00 +15°C° 0 mm 2 m/s 763 mmHg 28%
    21:00 +14°C° 0 mm 2 m/s 763 mmHg 30%
    22:00 +13°C° 0 mm 3 m/s 764 mmHg 31%
    23:00 +13°C° 0 mm 3 m/s 764 mmHg 33%

    Amanhã, 23 Abril, Segunda-feira

    Tempo Temperatura Precipitação Vento Pressão Humidade
    00:00 +13°C° 0 mm 3 m/s 764 mmHg 33%
    01:00 +13°C° 0 mm 3 m/s 765 mmHg 34%
    02:00 +13°C° 0 mm 3 m/s 765 mmHg 34%
    03:00 +12°C° 0 mm 3 m/s 765 mmHg 35%
    04:00 +12°C° 0 mm 3 m/s 765 mmHg 35%
    05:00 +12°C° 0 mm 3 m/s 765 mmHg 36%
    06:00 +12°C° 0 mm 3 m/s 766 mmHg 36%
    07:00 +13°C° 0 mm 2 m/s 766 mmHg 36%
    08:00 +13°C° 0 mm 2 m/s 766 mmHg 37%
    09:00 +13°C° 0 mm 3 m/s 766 mmHg 33%
    10:00 +14°C° 0 mm 3 m/s 766 mmHg 30%
    11:00 +17°C° 0 mm 4 m/s 766 mmHg 26%
    12:00 +17°C° 0 mm 4 m/s 766 mmHg 27%
    13:00 +17°C° 0 mm 5 m/s 766 mmHg 27%
    14:00 +19°C° 0 mm 5 m/s 765 mmHg 27%
    15:00 +19°C° 0 mm 5 m/s 765 mmHg 31%
    16:00 +17°C° 0 mm 6 m/s 765 mmHg 35%
    17:00 +17°C° 0 mm 6 m/s 765 mmHg 39%
    18:00 +16°C° 0 mm 7 m/s 765 mmHg 45%
    19:00 +15°C° 0 mm 7 m/s 765 mmHg 50%
    20:00 +13°C° 0 mm 8 m/s 765 mmHg 55%
    21:00 +12°C° 0 mm 8 m/s 765 mmHg 58%
    22:00 +12°C° 0 mm 8 m/s 765 mmHg 62%
    23:00 +12°C° 0 mm 8 m/s 766 mmHg 66%

    Depois de amanhã, 24 Abril, Terça-feira

    Tempo Temperatura Precipitação Vento Pressão Humidade
    00:00 +12°C° 0 mm 9 m/s 765 mmHg 67%
    01:00 +12°C° 0 mm 9 m/s 765 mmHg 68%
    02:00 +12°C° 0 mm 9 m/s 765 mmHg 69%
    03:00 +12°C° 0 mm 9 m/s 765 mmHg 71%
    04:00 +11°C° 0 mm 9 m/s 764 mmHg 73%
    05:00 +11°C° 0 mm 8 m/s 764 mmHg 75%
    06:00 +12°C° 0 mm 8 m/s 764 mmHg 74%
    07:00 +12°C° 0 mm 8 m/s 764 mmHg 73%
    08:00 +12°C° 0 mm 7 m/s 764 mmHg 71%
    09:00 +15°C° 0 mm 7 m/s 764 mmHg 65%
    10:00 +16°C° 0 mm 7 m/s 764 mmHg 60%
    11:00 +17°C° 0 mm 7 m/s 764 mmHg 54%
    12:00 +19°C° 0 mm 6 m/s 764 mmHg 48%
    13:00 +20°C° 0 mm 5 m/s 763 mmHg 42%
    14:00 +20°C° 0 mm 4 m/s 763 mmHg 36%
    15:00 +20°C° 0 mm 4 m/s 763 mmHg 35%
    16:00 +20°C° 0 mm 4 m/s 762 mmHg 35%
    17:00 +20°C° 0 mm 4 m/s 762 mmHg 34%
    18:00 +19°C° 0 mm 4 m/s 762 mmHg 39%
    19:00 +18°C° 0 mm 4 m/s 762 mmHg 44%
    20:00 +17°C° 0 mm 4 m/s 762 mmHg 50%
    21:00 +15°C° 0 mm 4 m/s 762 mmHg 56%
    22:00 +15°C° 0 mm 4 m/s 762 mmHg 62%
    23:00 +14°C° 0 mm 4 m/s 762 mmHg 68%

    25 Abril, Quarta-feira

    Tempo Temperatura Precipitação Vento Pressão Humidade
    00:00 +14°C° 0 mm 4 m/s 762 mmHg 73%
    01:00 +14°C° 0 mm 3 m/s 761 mmHg 79%
    02:00 +14°C° 0 mm 3 m/s 761 mmHg 84%
    03:00 +13°C° 0 mm 4 m/s 761 mmHg 85%
    04:00 +13°C° 0 mm 4 m/s 760 mmHg 86%
    05:00 +13°C° 0 mm 4 m/s 760 mmHg 87%
    06:00 +13°C° 0 mm 5 m/s 760 mmHg 82%
    07:00 +13°C° 0 mm 5 m/s 759 mmHg 77%
    08:00 +13°C° 0 mm 5 m/s 759 mmHg 72%
    09:00 +15°C° 0 mm 6 m/s 759 mmHg 61%
    10:00 +17°C° 0 mm 6 m/s 758 mmHg 50%
    11:00 +20°C° 0 mm 7 m/s 758 mmHg 40%
    12:00 +22°C° 0 mm 8 m/s 757 mmHg 36%
    13:00 +23°C° 0 mm 9 m/s 756 mmHg 32%
    14:00 +24°C° 0 mm 10 m/s 755 mmHg 28%
    15:00 +23°C° 0 mm 10 m/s 754 mmHg 31%
    16:00 +23°C° 0 mm 11 m/s 753 mmHg 34%
    17:00 +23°C° 0 mm 12 m/s 753 mmHg 37%
    18:00 +22°C° 0,1 mm 12 m/s 753 mmHg 43%
    19:00 +22°C° 0,1 mm 12 m/s 752 mmHg 50%
    20:00 +21°C° 0,1 mm 12 m/s 752 mmHg 56%
    21:00 +21°C° 0 mm 11 m/s 752 mmHg 56%
    22:00 +21°C° 0 mm 11 m/s 751 mmHg 57%
    23:00 +21°C° 0 mm 11 m/s 751 mmHg 58%

    26 Abril, Quinta-feira

    Tempo Temperatura Precipitação Vento Pressão Humidade
    00:00 +21°C° 0 mm 11 m/s 750 mmHg 59%
    01:00 +21°C° 0 mm 10 m/s 750 mmHg 59%
    02:00 +21°C° 0 mm 10 m/s 749 mmHg 60%
    03:00 +21°C° 0 mm 9 m/s 749 mmHg 59%
    04:00 +20°C° 0 mm 8 m/s 749 mmHg 58%
    05:00 +20°C° 0 mm 8 m/s 748 mmHg 56%
    06:00 +20°C° 0 mm 7 m/s 748 mmHg 58%
    07:00 +20°C° 0 mm 6 m/s 748 mmHg 60%
    08:00 +20°C° 0 mm 6 m/s 748 mmHg 61%
    09:00 +21°C° 0 mm 6 m/s 748 mmHg 55%
    10:00 +22°C° 0 mm 6 m/s 747 mmHg 48%
    11:00 +24°C° 0 mm 6 m/s 747 mmHg 41%
    12:00 +24°C° 0 mm 7 m/s 746 mmHg 40%
    13:00 +24°C° 0 mm 8 m/s 746 mmHg 38%
    14:00 +24°C° 0 mm 9 m/s 745 mmHg 37%
    15:00 +21°C° 0,2 mm 9 m/s 746 mmHg 47%
    16:00 +17°C° 0,2 mm 9 m/s 746 mmHg 57%
    17:00 +12°C° 0,2 mm 10 m/s 747 mmHg 68%
    18:00 +12°C° 1 mm 9 m/s 747 mmHg 65%
    19:00 +11°C° 1 mm 8 m/s 748 mmHg 63%
    20:00 +10°C° 1 mm 7 m/s 749 mmHg 60%
    21:00 +11°C° 0,4 mm 7 m/s 750 mmHg 56%
    22:00 +11°C° 0,4 mm 7 m/s 751 mmHg 51%
    23:00 +11°C° 0,4 mm 7 m/s 751 mmHg 47%

    27 Abril, Sexta-feira

    Tempo Temperatura Precipitação Vento Pressão Humidade
    00:00 +11°C° 0 mm 8 m/s 752 mmHg 43%
    01:00 +10°C° 0 mm 9 m/s 752 mmHg 38%
    02:00 +9°C° 0 mm 10 m/s 753 mmHg 34%
    03:00 +9°C° 0 mm 11 m/s 753 mmHg 35%
    04:00 +8°C° 0 mm 11 m/s 754 mmHg 37%
    05:00 +8°C° 0 mm 12 m/s 754 mmHg 38%
    06:00 +8°C° 0 mm 13 m/s 755 mmHg 38%
    07:00 +7°C° 0 mm 13 m/s 756 mmHg 39%
    08:00 +6°C° 0 mm 14 m/s 757 mmHg 39%
    09:00 +8°C° 0 mm 13 m/s 757 mmHg 34%
    10:00 +9°C° 0 mm 13 m/s 758 mmHg 30%
    11:00 +10°C° 0 mm 12 m/s 759 mmHg 26%
    12:00 +10°C° 0 mm 12 m/s 759 mmHg 24%
    13:00 +12°C° 0 mm 11 m/s 759 mmHg 23%
    14:00 +13°C° 0 mm 10 m/s 759 mmHg 22%
    15:00 +13°C° 0 mm 9 m/s 760 mmHg 23%
    16:00 +12°C° 0 mm 8 m/s 760 mmHg 23%
    17:00 +12°C° 0 mm 8 m/s 761 mmHg 24%
    18:00 +12°C° 0 mm 7 m/s 761 mmHg 26%
    19:00 +11°C° 0 mm 6 m/s 762 mmHg 28%
    20:00 +10°C° 0 mm 5 m/s 762 mmHg 31%
    21:00 +10°C° 0 mm 5 m/s 762 mmHg 33%
    22:00 +10°C° 0 mm 5 m/s 763 mmHg 34%
    23:00 +9°C° 0 mm 5 m/s 763 mmHg 36%
    Mostrar mais